Dewpoint
54 53 52 52 52 51 51 50 50 50 51 51 50 49 48 50 49 39 32 33 37 37 36 28 23 23 21 21 25 27 23 21 21 19 17 18 17 17 20 26 36 40 40 42 42
55 54 54 53 53 52 52 51 50 50 51 51 50 48 48 51 43 36 37 33 34 34 25 24 21 22 18 19 20 24 23 23 24 19 16 17 17 16 15 22 33 39 40 41 40
55 55 55 54 53 53 52 51 50 50 50 50 51 48 47 51 39 31 35 32 32 28 25 26 24 20 18 20 18 21 20 23 22 22 18 17 17 15 14 16 24 37 38 39 38
56 55 55 55 54 53 53 52 51 51 51 51 51 47 49 43 36 34 34 34 32 27 25 24 20 18 19 18 19 17 19 19 19 20 17 16 16 12 25 34 39 38 39 38 37
56 56 55 55 55 54 53 52 51 51 51 51 51 46 38 37 39 36 37 31 24 21 25 21 18 18 17 16 16 16 16 17 17 14 16 15 13 20 37 38 38 38 38 37 36
56 56 55 55 55 54 54 53 52 51 51 51 51 46 29 40 38 30 32 23 21 23 20 17 16 17 16 16 16 16 15 15 16 14 14 12 11 25 36 37 36 36 35 35 35
57 56 56 55 55 54 54 53 52 52 51 51 50 43 33 41 31 36 29 22 25 23 18 18 16 16 16 15 15 14 13 13 14 15 15 12 9 26 36 36 34 34 34 35 35
58 57 56 56 55 55 54 53 53 52 52 51 50 40 39 37 35 39 36 33 31 27 19 18 17 15 14 14 14 12 11 11 13 13 13 11 13 35 35 34 33 33 34 34 35
58 58 57 56 55 55 54 54 53 52 52 52 39 37 41 42 36 34 36 35 27 20 21 17 13 15 14 12 10 13 9 9 10 9 6 9 14 31 35 33 32 32 33 34 35
57 57 57 57 56 56 55 54 53 51 40 38 36 38 39 30 33 27 30 26 15 17 18 14 14 12 14 10 14 8 11 10 4 3 5 6 21 32 33 33 32 32 33 34 34
54 56 57 57 57 56 54 52 48 43 36 41 40 39 39 36 35 18 19 21 17 17 15 15 12 10 9 12 13 13 7 0 -0 2 -1 4 23 31 32 32 31 32 32 33 34
53 54 56 56 56 54 53 51 48 33 39 36 36 37 39 37 37 34 19 17 15 14 13 13 12 13 14 14 14 14 13 2 2 3 -1 -2 16 30 31 31 32 32 32 33 33
54 52 56 56 54 52 52 49 31 30 41 41 37 38 38 37 38 37 19 16 14 14 13 12 13 16 14 14 13 8 5 1 2 2 -2 -3 5 26 31 32 32 32 32 32 32
53 55 56 53 51 49 49 48 35 46 41 39 39 36 37 37 36 37 20 14 11 12 13 12 13 12 11 11 14 8 2 2 3 0 -1 -1 -2 14 29 30 31 31 31 31 32
51 54 53 53 49 48 50 47 45 48 27 32 39 40 38 36 32 34 19 13 13 10 11 13 9 9 9 10 9 7 7 4 2 0 -2 -2 -2 8 29 28 29 30 30 31 31
50 52 53 50 49 50 50 50 50 36 26 30 36 37 36 35 26 21 19 13 13 9 10 10 8 7 9 6 3 6 2 5 4 -2 -2 -1 -2 3 24 27 28 30 30 31 31
49 51 51 50 47 49 52 49 37 29 30 28 24 32 35 35 34 22 25 20 21 13 11 7 7 4 5 3 4 2 1 0 -0 -3 1 2 -5 -2 22 28 28 28 30 30 31
48 50 51 51 49 50 49 41 29 34 29 31 20 21 32 33 33 17 22 23 19 14 14 14 11 5 6 4 2 1 3 3 3 1 1 6 -2 0 28 29 29 30 29 30 29
48 48 47 49 49 49 44 32 30 30 29 28 27 18 23 28 33 17 17 22 23 11 15 12 13 6 5 6 5 3 1 9 5 9 3 2 12 26 29 29 29 29 29 29 28
44 44 42 49 49 46 38 32 30 33 31 30 25 24 20 20 26 29 20 15 19 17 13 12 8 5 4 4 6 6 9 3 8 -1 -1 2 8 6 26 27 29 28 28 28 29
42 36 41 48 47 41 31 33 35 34 33 31 31 27 26 20 23 24 28 23 17 13 11 13 9 6 4 2 3 7 5 9 8 8 0 1 4 19 21 28 29 29 29 28 28
39 31 42 47 35 35 32 35 35 36 35 35 35 35 31 28 19 21 23 19 14 13 10 13 12 6 3 8 7 8 7 10 5 5 13 11 3 26 27 29 30 29 29 28 27
34 33 40 41 28 30 33 33 33 31 34 34 36 36 37 35 32 26 20 20 17 11 9 12 13 8 6 8 9 3 8 13 14 13 7 3 4 27 30 30 30 29 29 27 27
34 28 33 36 35 32 28 32 33 37 35 36 38 38 37 36 36 34 29 20 19 15 17 13 17 9 11 10 10 5 7 12 7 4 4 5 5 24 28 29 29 29 27 25 26
31 29 29 27 29 30 32 30 30 27 33 32 34 36 34 33 33 33 26 18 18 20 18 17 15 13 10 9 9 8 7 12 6 3 4 6 7 13 24 28 28 28 26 24 24
31 30 32 30 28 31 30 28 31 31 30 30 31 30 35 33 33 32 33 27 22 18 17 21 20 15 10 12 11 8 9 13 12 11 9 10 10 15 23 28 27 26 24 23 22
34 37 30 26 28 28 27 26 26 30 30 31 31 32 32 34 36 35 35 35 33 32 25 22 21 12 9 12 9 5 8 9 11 14 12 10 12 23 27 27 26 24 23 22 22
Wind_Speed
7 6 7 7 7 8 10 12 14 16 18 20 22 25 25 26 23 4 5 2 4 10 8 7 4 9 4 3 4 3 5 6 4 6 1 4 2 5 7 12 9 7 7 9 11
9 8 8 7 8 7 9 11 13 16 19 22 24 25 26 24 9 6 3 2 6 11 7 11 7 7 3 3 3 3 3 7 3 2 3 1 1 2 3 11 8 14 15 14 12
11 10 9 9 8 8 8 10 12 15 17 21 24 27 26 15 6 2 3 3 6 7 4 3 4 2 3 3 4 1 3 4 4 5 3 2 0 3 5 5 6 16 14 12 13
12 11 11 10 9 9 8 9 10 12 14 18 21 26 28 4 4 3 3 4 5 5 5 5 5 3 2 2 1 0 3 2 4 3 3 3 1 5 10 6 19 18 14 14 19
13 14 13 12 11 10 10 8 9 10 12 16 19 24 8 6 8 6 3 3 5 4 5 4 5 3 2 3 4 2 1 3 5 4 4 4 3 9 13 14 20 20 19 19 20
16 15 15 14 12 11 10 11 10 10 11 13 16 19 4 12 1 9 3 3 2 3 4 3 2 0 1 2 2 4 4 8 4 4 3 8 4 9 4 15 21 22 20 19 19
19 18 17 16 13 13 11 11 10 10 12 14 11 6 2 17 1 7 5 1 1 2 3 3 1 4 1 2 3 4 8 7 6 7 9 9 3 5 16 16 22 20 17 18 17
19 19 19 18 15 14 12 10 9 10 11 10 11 0 8 4 5 13 5 6 4 4 4 6 2 3 2 2 4 2 2 4 2 1 2 10 6 13 15 24 20 18 16 17 16
15 17 18 17 17 14 10 7 10 11 11 11 2 1 11 11 6 5 9 9 2 3 3 2 3 2 2 3 3 3 5 3 5 2 2 3 8 11 9 20 19 16 15 15 13
12 15 16 17 19 14 7 6 8 7 2 2 2 4 8 3 3 2 3 4 2 2 2 3 4 2 2 5 8 4 4 4 3 3 2 5 8 10 5 12 17 15 14 13 12
12 10 14 16 15 10 3 6 5 4 1 10 3 5 3 5 2 2 3 7 3 3 6 2 3 12 14 8 4 2 2 3 2 4 2 5 11 10 9 15 17 14 12 11 10
9 9 11 12 10 12 5 4 3 3 11 16 20 16 13 2 5 6 7 6 6 9 5 1 12 16 6 5 4 3 6 5 3 6 0 3 6 7 8 8 10 13 10 9 6
10 7 7 5 10 10 7 4 3 6 7 9 12 12 8 16 16 19 15 6 6 11 13 10 5 9 10 8 7 4 10 5 4 3 4 2 3 9 4 8 9 8 8 8 7
3 3 2 16 8 6 6 9 3 1 8 7 8 9 8 10 9 15 19 9 6 15 11 11 10 14 5 6 10 9 7 5 5 2 5 1 10 8 12 14 13 11 10 10 8
5 2 18 15 8 6 2 14 5 2 9 3 5 3 9 14 2 5 1 7 15 11 8 11 6 9 12 13 14 7 8 6 3 2 1 4 8 3 12 13 17 16 13 11 9
9 10 18 2 2 2 7 16 5 6 16 4 7 7 9 9 1 3 6 4 6 7 4 8 2 5 5 4 10 15 9 7 5 2 10 14 15 6 11 12 15 14 14 13 11
8 8 12 10 5 9 14 8 12 20 1 5 7 9 8 9 8 7 17 22 17 11 17 5 8 4 7 8 6 6 12 4 3 6 14 2 11 16 10 11 23 27 19 14 11
10 8 5 3 4 13 7 12 18 11 24 4 2 3 10 10 8 8 14 17 16 9 5 18 11 17 11 11 10 11 12 10 8 8 5 1 10 6 2 4 11 14 16 12 10
12 5 4 8 8 14 9 30 23 15 3 10 6 6 8 8 8 10 11 12 17 19 14 12 9 2 3 5 15 8 14 4 3 3 2 6 5 3 6 8 14 16 14 13 10
10 6 6 10 13 12 20 23 19 23 11 7 15 13 11 10 12 16 13 9 13 26 7 7 4 2 5 6 6 9 14 6 3 7 10 7 8 12 14 20 17 18 17 13 9
7 6 3 15 12 12 17 17 11 23 14 11 9 14 21 12 15 12 11 7 16 20 24 9 5 2 4 8 14 8 8 3 7 6 7 7 9 7 20 24 27 23 20 16 12
6 9 2 12 19 7 13 14 11 9 19 12 3 8 19 7 9 19 20 11 13 16 20 14 6 10 12 2 6 6 10 14 13 8 4 2 17 2 8 22 24 24 21 15 13
5 7 1 3 19 24 11 18 21 21 15 18 12 12 3 4 9 8 13 3 6 17 18 15 9 10 2 3 1 10 8 8 7 5 14 10 14 2 4 17 22 25 17 16 13
7 9 5 5 4 10 28 17 18 12 14 19 6 13 7 7 6 8 7 2 1 12 8 18 9 22 29 11 7 11 16 17 15 10 12 25 22 6 11 18 19 18 18 16 13
5 7 7 14 16 24 11 13 24 22 18 17 7 15 7 12 7 8 7 3 1 2 4 10 14 12 5 5 10 8 15 22 22 27 18 25 24 17 22 25 25 17 17 15 12
6 6 2 3 5 22 15 24 21 19 15 20 19 14 19 18 14 6 1 9 7 5 4 1 11 1 11 5 3 8 7 20 21 9 17 17 25 9 12 13 16 20 19 16 13
4 3 7 11 6 13 24 25 32 20 8 18 12 12 15 22 20 20 16 16 14 5 3 6 15 12 15 2 4 13 17 16 12 9 14 21 23 9 10 22 25 21 18 16 12
Wind_Direction
268 279 293 308 323 339 345 354 355 351 348 341 340 336 336 338 332 11 6 336 328 340 335 322 45 8 40 62 46 115 91 163 166 157 146 333 49 6 69 73 48 36 78 81 46
256 263 273 289 305 326 335 346 350 349 347 341 339 336 334 338 341 334 305 343 0 5 28 18 8 8 49 39 39 86 128 193 207 186 173 167 85 138 118 96 73 79 61 65 60
249 257 264 274 290 309 321 334 343 344 344 338 335 332 331 331 343 333 353 19 22 24 44 357 342 45 69 24 14 97 166 182 231 255 203 240 240 148 135 100 165 138 109 70 62
255 255 258 265 277 284 299 316 328 333 337 334 333 329 325 335 327 349 340 10 358 353 27 21 3 36 63 138 29 169 227 279 310 282 186 208 170 74 56 70 96 98 90 79 61
246 255 257 260 261 270 282 292 305 321 333 332 335 331 347 337 258 334 338 356 349 357 43 32 44 31 351 346 328 201 221 307 309 282 226 149 191 117 88 87 87 84 69 62 61
241 247 253 256 258 262 271 280 294 314 325 327 340 326 13 302 284 359 335 323 322 27 12 22 78 71 3 347 309 310 292 290 271 234 244 191 182 93 130 115 90 82 74 66 61
241 238 244 251 253 264 266 276 294 314 317 323 338 339 309 263 340 351 322 262 49 36 352 315 342 63 81 337 341 310 310 306 222 218 228 156 182 87 137 111 94 88 85 78 68
243 240 240 243 249 255 263 281 296 302 308 311 318 5 259 244 300 297 248 271 227 264 223 289 291 103 93 341 2 333 351 307 324 224 256 183 207 150 141 119 113 110 102 89 74
256 248 243 245 247 248 262 280 284 299 296 299 277 151 274 316 276 281 197 226 199 181 239 106 77 66 71 115 320 10 226 232 307 355 301 210 133 169 163 135 129 117 106 100 93
267 253 249 246 245 244 242 266 270 304 349 128 280 295 268 220 281 257 200 198 138 76 65 77 61 162 96 158 229 200 222 236 240 331 149 115 104 130 110 116 124 120 114 109 97
271 273 256 244 242 224 181 270 271 281 171 215 244 258 288 288 265 195 160 135 110 84 191 90 190 224 221 198 125 29 303 254 265 358 237 118 134 157 136 132 138 136 128 113 100
247 271 271 244 231 166 151 212 189 138 299 252 253 260 248 13 293 236 146 162 171 202 153 140 242 235 202 175 205 268 269 252 301 359 65 96 137 143 153 157 156 149 145 135 121
248 249 263 251 148 144 170 196 124 123 270 264 223 232 219 186 233 228 171 174 183 195 196 199 187 110 183 211 210 223 204 214 231 7 12 330 229 182 144 138 145 155 154 153 154
63 250 194 137 147 153 196 190 157 166 283 260 234 249 173 148 238 195 181 156 190 215 190 236 235 242 213 226 186 213 209 186 172 158 255 303 279 218 172 168 172 167 171 170 170
161 134 153 166 138 185 167 160 121 133 272 189 189 154 162 168 168 195 154 147 193 177 164 223 206 205 215 213 174 199 145 145 126 150 336 213 266 249 156 200 190 183 184 187 189
198 177 171 79 141 221 136 137 210 132 237 262 158 162 152 226 218 97 151 108 153 183 232 239 250 175 203 122 174 140 102 65 64 77 270 211 206 245 198 213 180 188 193 192 192
204 203 166 155 206 162 135 160 203 206 64 237 193 171 195 188 221 162 178 189 185 191 223 230 232 188 153 111 106 139 134 219 250 193 239 314 211 258 206 196 182 184 189 192 186
207 178 218 192 207 157 142 204 243 184 216 92 77 148 191 178 218 188 169 199 217 186 156 204 240 188 192 188 178 185 180 183 214 208 241 151 234 260 224 186 162 164 173 179 178
194 180 222 207 196 168 209 218 219 230 213 247 292 242 222 213 193 178 207 221 208 190 201 194 239 190 167 146 170 188 214 194 122 75 297 228 268 243 165 161 160 165 179 187 186
178 179 231 173 172 213 206 230 228 234 254 288 223 221 224 200 191 191 198 218 214 197 191 201 234 227 148 113 54 176 149 145 162 214 240 251 258 233 201 191 182 188 198 196 181
181 198 249 166 151 223 215 214 205 244 241 239 252 233 237 221 207 201 221 241 208 193 191 163 184 160 141 209 183 151 176 122 160 181 227 260 252 221 212 189 191 198 201 194 189
189 199 163 163 194 233 204 207 203 243 234 251 232 258 244 213 218 213 222 224 208 168 192 196 173 203 200 265 206 183 190 176 205 213 213 225 266 207 198 193 190 196 199 188 185
210 195 49 194 210 219 235 232 225 237 232 226 228 227 323 238 235 226 229 212 183 178 184 174 192 215 241 267 155 217 199 173 137 125 215 226 258 8 191 184 192 193 183 175 170
172 188 209 199 256 210 220 220 216 236 246 209 238 241 253 239 260 280 251 320 240 202 199 162 177 210 226 228 170 201 199 192 190 212 226 237 256 211 202 195 192 184 173 170 171
221 209 188 190 225 215 220 220 215 224 214 217 224 212 220 230 225 225 267 254 343 1 152 159 209 214 256 227 185 213 203 193 203 222 217 256 238 234 214 204 196 172 165 164 166
191 178 116 162 184 208 218 226 209 219 215 222 229 232 207 222 221 250 107 11 349 12 49 74 210 4 246 199 231 246 217 203 214 226 236 251 261 217 225 158 168 173 166 168 168
252 215 150 205 177 189 220 228 222 219 238 238 222 239 245 234 218 233 227 207 203 256 342 177 173 186 235 146 235 271 232 206 209 208 216 236 248 179 181 189 182 165 162 167 159